Weather Roundup
Issued by NWS Springfield, MO

Home | Current Version | Previous Version | Text Only | Print | Product List | Glossary On
Versions: 1 2 3 4 5 6 7 8 9 10 11 12 13 14 15 16 17 18 19 20 21 22 23 24 25 26 27 28 29 30 31 32 33 34 35 36 37 38 39 40 41 42 43 44 45 46 47 48 49 50
000
NZUS99 KSGF 161407
HRRSGF

HOURLY WEATHER
NATIONAL WEATHER SERVICE SPRINGFIELD MO
900 AM CDT WED AUG 16 2017

......SGF CWA......

CITY           SKY/WX    TMP DP  RH WIND       PRES   REMARKS
SPRINGFIELD    CLOUDY    76  74  93 S14       29.94R
JOPLIN         MOSUNNY   82  75  79 S14G23    29.89S
WEST PLAINS    CLOUDY    77  74  90 S6        30.00R
ROLLA          CLOUDY    75  75 100 S8        29.97R
OSAGE BEACH    CLOUDY    72  71  97 SE9       29.93S
BRANSON        CLOUDY    73  73 100 S3        29.98R

......SURROUNDING SGF CWA......

CITY           SKY/WX    TMP DP  RH WIND       PRES   REMARKS
CHANUTE        MOSUNNY   79  73  82 S16G23    29.86R
PARSONS        SUNNY     79  73  82 S10G17    29.88R
COFFEYVILLE    SUNNY     80  74  81 S13       29.87R
EMPORIA        LGT RAIN  66  64  93 N9G18     29.89F
GROVE OK       PTSUNNY   81  73  78 S13       29.91R
ROGERS AR      CLOUDY    75  72  90 SE8       29.97R
SILOAM SPRINGS CLOUDY    77  72  83 S10G16    29.95R
HARRISON AR    PTSUNNY   76  74  93 SE8       29.99R
NEAR YELLVILLE CLOUDY    77  72  83 CALM      29.95R

......KANSAS AND MISSOURI......

CITY           SKY/WX    TMP DP  RH WIND       PRES   REMARKS
KANSAS CTY INT CLOUDY    74  73  97 S12       29.85S
DOWNTOWN KC    CLOUDY    74  72  93 E5        29.85R
COLUMBIA       RAIN      73  71  93 CALM      29.94R FOG
SEDALIA        MOSUNNY   75  75 100 SE10      29.91F
ST JOSEPH      CLOUDY    75  73  93 S9        29.84R
ST LOUIS       CLOUDY    78  73  84 S10       29.96R
SPIRIT OF STL  CLOUDY    77  75  93 SE5       29.94R
KIRKSVILLE     CLOUDY    74  71  91 S9        29.91S
WICHITA        LGT RAIN  68  67  96 NE15      29.89R
TOPEKA         LGT RAIN  74  72  93 NW18G28   29.86R
OLATHE         CLOUDY    74  73  97 SE10      29.86S

......TENNESSEE......

CITY           SKY/WX    TMP DP  RH WIND       PRES   REMARKS
MEMPHIS        CLOUDY    78  75  90 SW8       30.03R
NASHVILLE      CLOUDY    76  73  91 S6        30.07R

......ARKANSAS.......

CITY           SKY/WX    TMP DP  RH WIND       PRES   REMARKS
FAYETTEVILLE   CLOUDY    76  74  93 S6        29.96R
FT SMITH       CLOUDY    80  75  84 E6        29.93R
LITTLE ROCK    CLOUDY    78  78 100 S8        30.00R FOG

......OKLAHOMA.......

CITY           SKY/WX    TMP DP  RH WIND       PRES   REMARKS
TULSA          CLOUDY    80  75  84 S15       29.85R
PONCA CITY     SUNNY     79  71  76 VRB6      29.84S
MCALESTER      CLOUDY    80  73  79 S8        29.92R
OKLAHOMA CITY  PTSUNNY   78  72  81 S14       29.87R

......IOWA............

CITY           SKY/WX    TMP DP  RH WIND       PRES   REMARKS
DES MOINES     CLOUDY    73  70  90 SE13      29.85R
QUAD CITIES    SUNNY     73  66  78 E9        29.94F

......ILLINOIS........

CITY           SKY/WX    TMP DP  RH WIND       PRES   REMARKS
QUINCY         CLOUDY    75  71  87 SE8       29.93R
CHICAGO        SUNNY     76  65  68 E9        30.00F



USA.gov is the U.S. government's official web portal to all federal, state and local government web resources and services.